FW5354 Weather Reports


Display with metric or nautical units.
time (UTC)temp
F
wind
direction
speed
MPH
gust
MPH
rain 1hr
in
rain 24hr
in
rain mn
in
humidity
%
barometer
mb
20260831164553 93 175 0.0 0.0 0.00 0.00 0.00 56 1014.4
20260831163050 0 0.0 0.0 0.00 0.00 0.00 1014.3
20260831161545 0 0.0 0.0 0.00 0.00 0.00 1014.5
20260831160105 0 0.0 0.0 0.00 0.00 0.00 1014.6
20260831154637 0 0.0 0.0 0.00 0.00 0.00 1014.5
20260831153106 0 0.0 0.0 0.00 0.00 0.00 1014.5
20260831151528 0 0.0 0.0 0.00 0.00 0.00 1014.5
20260831150031 0 0.0 0.0 0.00 0.00 0.00 1014.4
20260831144519 0 0.0 0.0 0.00 0.00 0.00 1014.3
20260831143016 0 0.0 0.0 0.00 0.00 0.00 1014.2
20260831141518 0 0.0 0.0 0.00 0.00 0.00 1014.2
20260831140013 84 152 0.0 0.0 0.00 0.00 0.00 68 1014.1
20260831134512 83 153 0.0 0.0 0.00 0.00 0.00 62 1013.9
20260831133010 81 152 0.0 0.0 0.00 0.00 0.00 51 1013.9
20260831131511 79 152 0.0 0.0 0.00 0.00 0.00 40 1013.8
20260831130008 78 148 0.0 0.0 0.00 0.00 0.00 37 1013.7
20260831124505 0 0.0 0.0 0.00 0.00 0.00 1013.5
20260831123000 0 0.0 0.0 0.00 0.00 0.00 1013.3
20260831121557 0 0.0 0.0 0.00 0.00 0.00 1013.2
20260831120142 0 0.0 0.0 0.00 0.00 0.00 1012.8
20260831114549 0 0.0 0.0 0.00 0.00 0.00 1012.7
20260831113046 0 0.0 0.0 0.00 0.00 0.00 1012.7
20260831111548 0 0.0 0.0 0.00 0.00 0.00 1012.8
20260831110038 0 0.0 0.0 0.00 0.00 0.00 1012.7
20260831104539 0 0.0 0.0 0.00 0.00 0.00 1012.7
20260831103035 0 0.0 0.0 0.00 0.00 0.00 1012.7
20260831101533 0 0.0 0.0 0.00 0.00 0.00 1012.8
20260831100027 0 0.0 0.0 0.00 0.00 0.00 1013.0
20260831094519 0 0.0 0.0 0.00 0.00 0.00 1012.7
20260831093017 0 0.0 0.0 0.00 0.00 0.00 1012.7
20260831091512 0 0.0 0.0 0.00 0.00 0.00 1012.6
20260831090008 0 0.0 0.0 0.00 0.00 0.00 1012.7
20260831084504 0 0.0 0.0 0.00 0.00 0.00 1012.8
20260831083100 0 0.0 0.0 0.00 0.00 0.00 1012.8
20260831081559 0 0.0 0.0 0.00 0.00 0.00 1012.7
20260831080051 0 0.0 0.0 0.00 0.00 0.00 1012.8
20260831074548 0 0.0 0.0 0.00 0.00 0.00 1012.8
20260831073045 0 0.0 0.0 0.00 0.00 0.00 1012.8
20260831071541 0 0.0 0.0 0.00 0.00 0.00 1012.9
20260831070058 0 0.0 0.0 0.00 0.00 0.00 1013.0
20260831064532 0 0.0 0.0 0.00 0.00 0.00 1013.1
20260831063028 0 0.0 0.0 0.00 0.00 0.00 1013.0
20260831061527 81 148 0.0 0.0 0.00 0.00 0.00 71 1013.0
20260831060025 82 148 0.0 0.0 0.00 0.00 0.00 71 1013.1
20260831054523 82 148 0.0 0.0 0.00 0.00 0.00 72 1013.2
20260831053024 82 148 0.0 0.0 0.00 0.00 0.00 72 1013.0
20260831051534 82 148 0.0 0.0 0.00 0.00 0.00 72 1013.0
20260831050020 83 148 0.0 0.0 0.00 0.00 0.00 73 1012.9
20260831044520 83 148 0.0 0.0 0.00 0.00 0.00 73 1012.9
20260831043016 83 148 0.0 0.0 0.00 0.00 0.00 73 1012.8
20260831041527 84 150 0.0 0.0 0.00 0.00 0.00 72 1012.7
20260831040034 84 150 0.0 0.0 0.00 0.00 0.00 72 1012.6
20260831034513 84 148 0.0 0.0 0.00 0.00 0.00 71 1012.4
20260831033052 85 147 0.0 0.0 0.00 0.00 0.00 70 1012.3
20260831031549 85 147 0.0 0.0 0.00 0.00 0.00 69 1012.2
20260831030031 86 146 0.0 0.0 0.00 0.00 0.00 68 1012.0
20260831024529 87 146 0.0 0.0 0.00 0.00 0.00 67 1011.8
20260831023036 87 148 0.0 0.0 0.00 0.00 0.00 66 1011.5
20260831021546 88 155 0.0 0.0 0.00 0.00 0.00 65 1011.3
20260831020023 88 148 0.0 0.0 0.00 0.00 0.00 63 1011.1
20260831014522 89 152 0.0 0.0 0.00 0.00 0.00 61 1010.9
20260831013019 90 150 0.0 0.0 0.00 0.00 0.00 59 1011.0
20260831011517 91 136 0.0 0.0 0.00 0.00 0.00 57 1010.9
20260831010031 92 133 0.0 0.0 0.00 0.00 0.00 55 1010.8
20260831004510 93 146 0.0 0.0 0.00 0.00 0.00 52 1010.7
20260831003007 93 146 0.0 0.0 0.00 0.00 0.00 50 1010.6
20260831001513 94 140 0.0 0.0 0.00 0.00 0.00 50 1010.4
20260831000007 95 153 0.0 0.0 0.00 0.00 0.00 48 1010.3
20260830234505 95 174 0.0 0.0 0.00 0.00 0.00 45 1010.4
20260830233006 96 174 0.0 0.0 0.00 0.00 0.00 44 1010.3
20260830231502 97 146 0.0 0.0 0.00 0.00 0.00 43 1010.3
20260830230059 98 144 0.0 0.0 0.00 0.00 0.00 41 1010.3
20260830224606 100 155 0.0 0.0 0.00 0.00 0.00 39 1010.3
20260830223100 100 150 0.0 0.0 0.00 0.00 0.00 37 1010.4
20260830221558 101 160 0.0 0.0 0.00 0.00 0.00 38 1010.4
20260830220121 102 170 0.0 0.0 0.00 0.00 0.00 38 1010.4
20260830214602 101 148 0.0 0.0 0.00 0.00 0.00 38 1010.5
20260830213054 101 154 0.0 0.0 0.00 0.00 0.00 38 1010.7
20260830211552 101 169 0.0 0.0 0.00 0.00 0.00 39 1010.9
20260830210050 100 169 0.0 0.0 0.00 0.00 0.00 41 1011.1
20260830204547 98 171 0.0 0.0 0.00 0.00 0.00 43 1011.3
20260830203056 101 174 0.0 0.0 0.00 0.00 0.00 39 1011.5
20260830201544 102 152 0.0 0.0 0.00 0.00 0.00 37 1011.8
20260830200048 101 159 0.0 0.0 0.00 0.00 0.00 40 1012.0
20260830194546 101 163 0.0 0.0 0.00 0.00 0.00 41 1012.4
20260830193044 99 152 0.0 0.0 0.00 0.00 0.00 41 1012.7
20260830191542 100 147 0.0 0.0 0.00 0.00 0.00 41 1012.9
20260830190034 98 172 0.0 0.0 0.00 0.00 0.00 46 1013.0
20260830184530 98 169 0.0 0.0 0.00 0.00 0.00 46 1013.2
20260830183027 98 176 0.0 0.0 0.00 0.00 0.00 46 1013.6
20260830181535 95 174 0.0 0.0 0.00 0.00 0.00 51 1013.7
20260830180047 92 180 0.0 0.0 0.00 0.00 0.00 55 1014.0
20260830174529 92 177 0.0 0.0 0.00 0.00 0.00 57 1014.3
20260830173050 93 179 0.0 0.0 0.00 0.00 0.00 57 1014.5
20260830171527 95 184 0.0 0.0 0.00 0.00 0.00 57 1014.6
20260830170024 95 191 0.0 0.0 0.00 0.00 0.00 55 1014.6